EW9824 Weather Reports


time (UTC)temp
C
wind
direction
speed
KPH
gust
KPH
rain 1hr
cm
rain 24hr
cm
rain mn
cm
humidity
%
barometer
mb
20260503204550 -17 0 0.0 0.0 0.00 0.00 0.00 100
20260503203031 28 102 6.4 19.3 0.00 0.00 0.00 26 1015.8
20260503201543 28 68 11.3 27.4 0.00 0.00 0.00 28 1015.9
20260503200033 28 71 11.3 24.1 0.00 0.00 0.00 28 1016.1
20260503194529 27 89 8.0 22.5 0.00 0.00 0.00 28 1016.3
20260503193041 27 69 12.9 33.8 0.00 0.00 0.00 29 1016.4
20260503191529 27 103 11.3 27.4 0.00 0.00 0.00 29 1016.5
20260503190029 27 120 11.3 24.1 0.00 0.03 0.00 30 1016.6
20260503184529 25 77 9.7 24.1 0.00 0.03 0.00 37 1016.8
20260503181530 24 350 6.4 12.9 0.00 0.03 0.00 42 1016.9
20260503180032 23 310 4.8 16.1 0.00 0.03 0.00 45 1017.1
20260503174530 23 353 4.8 11.3 0.00 0.03 0.00 47 1017.2
20260503173031 22 325 3.2 8.0 0.00 0.03 0.00 50 1017.4
20260503171530 21 303 3.2 11.3 0.00 0.03 0.00 51 1017.4
20260503170104 20 308 3.2 9.7 0.00 0.03 0.00 53 1017.5
20260503140109 7 180 1.6 4.8 0.00 0.03 0.00 87 1017.4
20260503081535 10 144 4.8 9.7 0.00 0.03 0.00 82 1017.5
20260503071531 11 173 3.2 9.7 0.00 0.03 0.00 77 1017.6
20260503054532 13 178 3.2 6.4 0.00 0.03 0.03 73 1017.4
20260503053032 13 147 4.8 8.0 0.00 0.03 0.03 74 1017.4
20260503050030 14 148 0.0 4.8 0.00 0.03 0.03 70 1017.3
20260503044543 15 157 0.0 3.2 0.00 0.03 0.03 65 1017.3
20260503041531 17 150 4.8 9.7 0.00 0.03 0.03 60 1017.0
20260503040040 18 163 4.8 9.7 0.00 0.03 0.03 58 1016.8
20260503031529 19 168 4.8 11.3 0.00 0.03 0.03 58 1016.2
20260503024529 20 160 3.2 8.0 0.00 0.03 0.03 61 1015.7
20260503023032 21 150 3.2 4.8 0.00 0.03 0.03 56 1015.6
20260503021528 22 135 3.2 6.4 0.00 0.03 0.03 51 1015.5
20260503014530 23 112 0.0 3.2 0.00 0.03 0.03 40 1015.4
20260503013037 24 53 1.6 8.0 0.00 0.03 0.03 37 1015.5
20260503011542 25 82 4.8 14.5 0.00 0.03 0.03 35 1015.5
20260503010032 25 9 4.8 14.5 0.00 0.03 0.03 33 1015.5
20260503004527 25 359 1.6 4.8 0.00 0.03 0.03 34 1015.4
20260503003029 25 64 6.4 17.7 0.00 0.03 0.03 34 1015.4
20260503001531 25 104 8.0 25.7 0.00 0.03 0.03 33 1015.5
20260503000103 25 89 8.0 19.3 0.00 0.03 0.03 32 1015.6
20260502233107 26 75 4.8 16.1 0.00 0.03 0.03 32 1015.8
20260502231530 26 29 6.4 22.5 0.00 0.03 0.03 31 1016.0
20260502224530 26 99 6.4 19.3 0.00 0.03 0.03 31 1016.4
20260502223104 26 93 11.3 29.0 0.00 0.03 0.03 31 1016.5
20260502221531 27 98 14.5 29.0 0.00 0.03 0.03 32 1016.6
20260502220035 26 107 9.7 24.1 0.00 0.03 0.03 37 1016.7
20260502214608 25 332 6.4 12.9 0.00 0.03 0.03 43 1016.8
20260502213031 23 327 6.4 16.1 0.00 0.03 0.03 46 1017.0
20260502211533 23 328 8.0 12.9 0.00 0.03 0.03 49 1017.1